Regional Weather Roundup
Issued by NWS

Home | Current Version | Previous Version | Text Only | Print | Product List | Glossary Off
Versions: 1 2 3 4 5 6 7 8 9 10 11 12 13 14 15 16 17 18 19 20 21 22 23 24 25 26 27 28 29 30 31 32 33 34 35 36 37 38 39 40 41 42 43 44 45 46 47 48 49 50

306
ASUS45 KCYS 112310
RWRWY

WYOMING REGIONAL WEATHER ROUNDUP
NATIONAL WEATHER SERVICE CHEYENNE WY
400 PM MST THU FEB 11 2016

NOTE:  "FAIR" INDICATES FEW OR NO CLOUDS BELOW 12,000 FEET
WITH NO SIGNIFICANT WEATHER AND/OR OBSTRUCTIONS TO VISIBILITY.

WYZ001-120000-
YELLOWSTONE NATIONAL PARK

CITY           SKY/WX    TMP DP  RH WIND       PRES   REMARKS
LK YELLOWSTONE   N/A     41  19  41 MISG      30.33R
W YELLOWSTONE  NOT AVBL

$$
WYZ002>013-054>058-071-098>099-120000-
NORTHERN WYOMING

CITY           SKY/WX    TMP DP  RH WIND       PRES   REMARKS
JACKSON        MOSUNNY   37  25  60 CALM      30.32R
CODY           FAIR      55  16  21 N15       30.19R
GREYBULL       FAIR      60  18  19 N20       30.15R
WORLAND        FAIR      50  31  48 SW6       30.18S
SHERIDAN       FAIR      55  23  28 N18G30    30.15R
BUFFALO        FAIR      50  25  37 N15       30.17R
GILLETTE       FAIR      50  25  37 NW20G28   30.14R
HULETT         FAIR      48  27  43 NW17G28   30.13R
NEWCASTLE      FAIR      50  21  32 NW20G26   30.12R

$$
WYZ014>020-022>026-101>103-120000-
CENTRAL WYOMING

CITY           SKY/WX    TMP DP  RH WIND       PRES   REMARKS
BIG PINEY      PTSUNNY   48  26  42 N8        30.32S
PINEDALE         N/A     45  23  42 CALM      30.33S
DUBOIS         MOCLDY    45  18  33 NW16G24   30.26R
LANDER         FAIR      50  25  37 NE3       30.19R
RIVERTON       FAIR      49  23  36 E5        30.21R
CASPER         FAIR      42  28  57 SW14      30.19R
DOUGLAS        FAIR      49  27  42 N14       30.19R

$$
WYZ021-027>030-104>119-120000-
SOUTHERN WYOMING

CITY           SKY/WX    TMP DP  RH WIND       PRES   REMARKS
EVANSTON       FAIR      42  20  41 SW9       30.37S
KEMMERER       FAIR      41  23  48 NW9       30.38S
FORT BRIDGER   CLEAR     43  25  49 W17       30.39R
ROCK SPRINGS   FAIR      42  22  44 SW15      30.33R
DIXON          FAIR      44  19  36 W5        30.37R
RAWLINS        FAIR      38  24  57 W20G29    30.27S WCI  28
SARATOGA       FAIR      41  27  56 W15       30.30R
LARAMIE        FAIR      46  26  45 NW18      30.20R
CHEYENNE       FAIR      52  25  35 NW21G35   30.15R
TORRINGTON     FAIR      55  26  32 NW20G25   30.13R
PINE BLUFFS    FAIR      48  25  40 NW24G32   30.15S

$$




USA.gov is the U.S. government's official web portal to all federal, state and local government web resources and services.